Meteo Giornale » Osservazioni meteo Svizzera » Sion

ore: 00:20 - Osservazioni Meteo Sion
Lat. 46° 13' N Lon. 7° 20' E Alt. 482 metri s.l.m.

sereno Europe/Zurich

0 °C

Sereno

Temp. 24 Ore

0 °C

10 °C

Nord

1.8 Km/h

Dew point -3 °C

Umidità 80 %

Visibilità  10 Km

Il sole sorge alle ore 07:27

Il sole tramonta alle ore 17:02

Data e Ora Cielo e Fenomeni T °C DP °C Um. % Pres. hPa Vis. km Vento km/h
Oggi h: 00:20 sereno Sereno 0 -3 80 1004 10 N 1.8
Ieri h: 23:50 sereno Sereno 0 -2 86 1004 10 N 3.7
Ieri h: 23:20 sereno Sereno 0 -2 86 1003 10 N 1.8
Ieri h: 22:50 sereno Sereno 0 -3 80 1003 10 N 1.8
Ieri h: 22:20 sereno Sereno 1 -1 86 1003 10 N 0
Ieri h: 21:50 sereno Sereno 1 -2 80 1004 10 N 3.7
Ieri h: 21:20 sereno Sereno 1 -2 80 1004 10 N 3.7
Ieri h: 20:50 sereno Sereno 2 -2 74 1004 10 N 5.5
Ieri h: 20:20 sereno Sereno 2 -2 74 1004 10 N 1.8
Ieri h: 19:50 sereno Sereno 2 -2 74 1005 10 N 0
Ieri h: 19:20 sereno Sereno 3 -2 69 1005 10 N 1.8
Ieri h: 18:50 sereno Sereno 4 -2 64 1005 10 N 3.7
Ieri h: 18:20 sereno Sereno 5 -2 60 1005 10 N 3.7
Ieri h: 17:50 sereno Sereno 5 -1 65 1005 10 N 5.5
Ieri h: 17:20 poco_nuvoloso Poco Nuvoloso 6 1 70 1005 10 O 14.8
Ieri h: 16:50 poco_nuvoloso Poco Nuvoloso 7 0 60 1005 10 O 13
Ieri h: 16:20 poco_nuvoloso Poco Nuvoloso 8 -0 56 1005 10 O/SO 9.3
Ieri h: 15:50 poco_nuvoloso Poco Nuvoloso 9 -1 49 1005 10 O 11.1
Ieri h: 15:20 poco_nuvoloso Poco Nuvoloso 9 -1 49 1005 10 SO 7.4
Ieri h: 14:50 poco_nuvoloso Poco Nuvoloso 10 0 49 1005 10 SO 7.4
Ieri h: 14:20 poco_nuvoloso Poco Nuvoloso 9 0 53 1006 10 N 5.5
Ieri h: 13:50 poco_nuvoloso Poco Nuvoloso 9 -0 53 1006 10 S/SO 7.4
Ieri h: 13:20 poco_nuvoloso Poco Nuvoloso 9 -0 53 1007 10 N 5.5
Ieri h: 12:50 poco_nuvoloso Poco Nuvoloso 9 1 57 1007 10 N 3.7
Ieri h: 12:20 poco_nuvoloso Poco Nuvoloso 8 0 56 1008 10 N 1.8
Ieri h: 11:50 poco_nuvoloso Poco Nuvoloso 7 1 65 1008 10 N 5.5
Ieri h: 11:20 poco_nuvoloso Poco Nuvoloso 6 2 75 1009 10 E 7.4
Ieri h: 10:50 poco_nuvoloso Poco Nuvoloso 5 2 80 1009 10 N 5.5
Ieri h: 10:20 nuvoloso Nuvoloso 4 1 80 1009 10 N 5.5
Ieri h: 09:50 nuvoloso Nuvoloso 3 1 86 1010 10 N 5.5
Ieri h: 09:20 poco_nuvoloso Poco Nuvoloso 3 1 86 1010 10 N 1.8
Ieri h: 08:50 poco_nuvoloso Poco Nuvoloso 2 1 93 1010 10 N 1.8
Ieri h: 08:20 poco_nuvoloso Poco Nuvoloso 3 1 86 1010 10 N 0
Ieri h: 07:50 nuvoloso Nuvoloso 3 1 86 1010 10 N 1.8
Ieri h: 07:20 sereno Sereno 3 2 93 1009 10 N 0
Ieri h: 06:50 poco_nuvoloso Poco Nuvoloso 4 2 86 1009 10 N 3.7
Ieri h: 06:20 nuvoloso Nuvoloso 3 1 86 1009 10 N 5.5
Ieri h: 05:50 poco_nuvoloso Poco Nuvoloso 4 2 86 1009 10 N 3.7
Ieri h: 05:20 molto_nuvoloso Molto Nuvoloso 4 2 86 1009 10 N 3.7
Ieri h: 04:50 nuvoloso Nuvoloso 5 2 80 1009 10 N 3.7
Ieri h: 04:20 nuvoloso Nuvoloso 5 2 80 1009 10 N 3.7
Ieri h: 03:50 nuvoloso Nuvoloso 4 2 86 1009 10 N 3.7
Ieri h: 03:20 molto_nuvoloso Molto Nuvoloso 5 2 80 1009 10 N 3.7
Ieri h: 02:50 molto_nuvoloso Molto Nuvoloso 5 2 80 1010 10 N 3.7
Ieri h: 02:20 molto_nuvoloso Molto Nuvoloso 5 2 80 1010 10 N 1.8
Ieri h: 01:50 coperto Coperto 5 2 80 1010 10 N 5.5
Ieri h: 01:20 coperto Coperto 5 3 86 1010 10 N 5.5
Ieri h: 00:50 molto_nuvoloso Molto Nuvoloso 4 3 93 1010 10 N 3.7
Ieri h: 00:20 molto_nuvoloso Molto Nuvoloso 4 3 93 1010 10 N 1.8
Ieri h: 23:50 molto_nuvoloso Molto Nuvoloso 4 2 86 1010 10 N 3.7